BAW2590 EGKK-LIPX

Flight info

Callsign BAW2590
Flight time 1h 48m
Altitude 37000
Route SFD Y47 BENBO UL612 VEULE DCT TEPRI UN491 POGZI DCT GELTA DCT LUVAL DCT SHARA DCT DEVDI DCT RIPUS DCT GERSA DCT SOSON DCT ODINA DCT LEGLO/N0353F180 L615 OSKOR/N0357F190 L615 NEVNI
Aircraft A320/M-SDE3FGHIRWY/LB1

Departure

Time 2026-05-06 17:04
Airport London Gatwick Airport (EGKK)

Arrival

Time 2026-05-06 18:52
Airport Verona Villafranca Valerio Catullo Airport (LIPX)
Time Latitude Longitude Altitude Speed Heading
2026-05-06 17:04 51.09371 -0.02886 5733 ft 285 kts 175°
2026-05-06 17:04 51.07413 -0.02580 5928 ft 283 kts 173°
2026-05-06 17:04 51.05481 -0.01953 5978 ft 284 kts 166°
2026-05-06 17:05 51.03589 -0.01073 5983 ft 282 kts 162°
2026-05-06 17:05 51.01731 -0.00112 5981 ft 281 kts 161°
2026-05-06 17:05 50.99887 0.00852 5982 ft 277 kts 161°
2026-05-06 17:05 50.98056 0.01790 5982 ft 276 kts 162°
2026-05-06 17:06 50.96225 0.02704 5978 ft 276 kts 162°
2026-05-06 17:06 50.94415 0.03582 5976 ft 276 kts 163°
2026-05-06 17:06 50.92575 0.04457 5975 ft 277 kts 163°
2026-05-06 17:06 50.90718 0.05332 5976 ft 278 kts 163°
2026-05-06 17:07 50.88859 0.06203 5975 ft 280 kts 163°
2026-05-06 17:07 50.87001 0.07074 5972 ft 279 kts 163°
2026-05-06 17:07 50.85146 0.07940 5971 ft 278 kts 164°
2026-05-06 17:07 50.83291 0.08807 5973 ft 278 kts 164°
2026-05-06 17:08 50.81428 0.09681 5969 ft 281 kts 163°
2026-05-06 17:08 50.79550 0.10565 5972 ft 282 kts 164°
2026-05-06 17:08 50.77694 0.11429 5972 ft 282 kts 166°
2026-05-06 17:08 50.75760 0.11811 5972 ft 280 kts 182°
2026-05-06 17:09 50.73823 0.11365 6447 ft 284 kts 195°
2026-05-06 17:09 50.71907 0.10638 7465 ft 283 kts 194°
2026-05-06 17:09 50.69973 0.09938 8384 ft 287 kts 194°
2026-05-06 17:09 50.68007 0.09240 9248 ft 293 kts 194°
2026-05-06 17:10 50.66003 0.08526 10078 ft 298 kts 194°
2026-05-06 17:10 50.63914 0.07779 10450 ft 320 kts 193°
2026-05-06 17:10 50.61703 0.06987 10792 ft 338 kts 193°
2026-05-06 17:10 50.59384 0.06156 11491 ft 345 kts 194°
2026-05-06 17:11 50.57031 0.05308 12288 ft 349 kts 194°
2026-05-06 17:11 50.54661 0.04451 13111 ft 352 kts 194°
2026-05-06 17:11 50.52262 0.03584 13927 ft 356 kts 194°
2026-05-06 17:11 50.49842 0.02716 14676 ft 359 kts 193°
2026-05-06 17:12 50.47347 0.02286 15415 ft 364 kts 181°
2026-05-06 17:12 50.44854 0.02709 16121 ft 368 kts 168°
2026-05-06 17:12 50.42422 0.04013 16826 ft 373 kts 155°
2026-05-06 17:12 50.40183 0.06119 17523 ft 378 kts 147°
2026-05-06 17:13 50.37988 0.08418 18248 ft 381 kts 147°
2026-05-06 17:13 50.35768 0.10723 18892 ft 385 kts 147°
2026-05-06 17:13 50.33524 0.13037 19559 ft 388 kts 148°
2026-05-06 17:13 50.31256 0.15367 20251 ft 392 kts 148°
2026-05-06 17:14 50.28968 0.17717 20938 ft 395 kts 148°
2026-05-06 17:14 50.26661 0.20093 21610 ft 399 kts 148°
2026-05-06 17:14 50.24366 0.22454 22257 ft 402 kts 148°
2026-05-06 17:14 50.22013 0.24867 22918 ft 406 kts 148°
2026-05-06 17:15 50.19641 0.27302 23565 ft 410 kts 148°
2026-05-06 17:15 50.17253 0.29760 24111 ft 413 kts 148°
2026-05-06 17:15 50.14847 0.32239 24684 ft 416 kts 148°
2026-05-06 17:15 50.12423 0.34729 25242 ft 419 kts 148°
2026-05-06 17:16 50.09979 0.37230 25785 ft 422 kts 148°
2026-05-06 17:16 50.07521 0.39743 26322 ft 425 kts 148°
2026-05-06 17:16 50.05043 0.42277 26852 ft 427 kts 148°
2026-05-06 17:16 50.02585 0.44788 27365 ft 430 kts 148°
2026-05-06 17:17 50.00070 0.47354 27879 ft 433 kts 148°
2026-05-06 17:17 49.97548 0.49925 28382 ft 436 kts 148°
2026-05-06 17:17 49.95003 0.52517 28815 ft 440 kts 148°
2026-05-06 17:17 49.92435 0.55127 29236 ft 443 kts 148°
2026-05-06 17:18 49.89846 0.57756 29667 ft 446 kts 148°
2026-05-06 17:18 49.87253 0.60417 30072 ft 449 kts 145°
2026-05-06 17:18 49.84832 0.63517 30408 ft 453 kts 136°
2026-05-06 17:18 49.82708 0.67039 30820 ft 453 kts 132°
2026-05-06 17:19 49.80598 0.70643 31352 ft 451 kts 133°
2026-05-06 17:19 49.78484 0.74225 31808 ft 451 kts 133°
2026-05-06 17:19 49.76363 0.77803 32233 ft 452 kts 133°
2026-05-06 17:19 49.74238 0.81377 32705 ft 451 kts 133°
2026-05-06 17:20 49.72114 0.84944 33110 ft 452 kts 132°
2026-05-06 17:20 49.69988 0.88529 33545 ft 452 kts 132°
2026-05-06 17:20 49.68583 0.90903 33873 ft 452 kts 132°
2026-05-06 17:20 49.65758 0.95665 34513 ft 449 kts 133°
2026-05-06 17:21 49.63680 0.99164 34871 ft 449 kts 133°
2026-05-06 17:21 49.61564 1.02721 35271 ft 448 kts 133°
2026-05-06 17:21 49.59456 1.06253 35675 ft 448 kts 133°
2026-05-06 17:21 49.57341 1.09785 36001 ft 449 kts 133°
2026-05-06 17:22 49.55214 1.13324 36290 ft 451 kts 133°
2026-05-06 17:22 49.53084 1.16861 36651 ft 450 kts 134°
2026-05-06 17:22 49.50954 1.20409 36895 ft 453 kts 134°
2026-05-06 17:23 49.46659 1.27562 36975 ft 456 kts 134°
2026-05-06 17:23 49.42368 1.34671 36973 ft 456 kts 134°
2026-05-06 17:24 49.38058 1.41812 36974 ft 455 kts 134°
2026-05-06 17:24 49.33740 1.48922 36966 ft 455 kts 134°
2026-05-06 17:25 49.29412 1.56027 36953 ft 456 kts 135°
2026-05-06 17:25 49.25810 1.61932 36947 ft 456 kts 134°
2026-05-06 17:26 49.20767 1.70181 36954 ft 457 kts 134°
2026-05-06 17:26 49.16421 1.77257 36956 ft 456 kts 135°
2026-05-06 17:27 49.12076 1.84315 36959 ft 456 kts 135°
2026-05-06 17:27 49.07731 1.91382 36961 ft 456 kts 135°
2026-05-06 17:28 49.03407 1.98381 36958 ft 456 kts 134°
2026-05-06 17:28 48.99042 2.05399 36959 ft 456 kts 134°
2026-05-06 17:29 48.94681 2.12414 36956 ft 456 kts 135°
2026-05-06 17:29 48.90316 2.19415 36955 ft 456 kts 135°
2026-05-06 17:30 48.85974 2.26348 36955 ft 456 kts 135°
2026-05-06 17:30 48.81603 2.33319 36959 ft 455 kts 134°
2026-05-06 17:31 48.77235 2.40277 36965 ft 455 kts 135°
2026-05-06 17:31 48.72888 2.47164 36963 ft 455 kts 135°
2026-05-06 17:32 48.68512 2.54087 36959 ft 455 kts 135°
2026-05-06 17:32 48.64132 2.60996 36926 ft 455 kts 135°
2026-05-06 17:33 48.60491 2.66732 36933 ft 455 kts 135°
2026-05-06 17:33 48.57808 2.71662 36936 ft 455 kts 123°
2026-05-06 17:33 48.56318 2.75872 36936 ft 456 kts 113°
2026-05-06 17:34 48.54894 2.85098 36932 ft 457 kts 93°
2026-05-06 17:34 48.54592 2.94684 36924 ft 458 kts 93°
2026-05-06 17:35 48.54260 3.04274 36917 ft 458 kts 94°
2026-05-06 17:35 48.53979 3.12255 36923 ft 458 kts 94°
2026-05-06 17:36 48.53422 3.28213 36928 ft 458 kts 94°
2026-05-06 17:36 48.53123 3.36262 36928 ft 458 kts 94°
2026-05-06 17:37 48.52758 3.45791 36927 ft 458 kts 94°
2026-05-06 17:37 48.52384 3.55382 36920 ft 458 kts 94°
2026-05-06 17:38 48.51955 3.66532 36924 ft 458 kts 94°
2026-05-06 17:38 48.51636 3.74574 36926 ft 458 kts 94°
2026-05-06 17:39 48.51243 3.84104 36929 ft 459 kts 95°
2026-05-06 17:39 48.50841 3.93709 36932 ft 459 kts 95°
2026-05-06 17:40 48.50246 4.03269 36933 ft 457 kts 103°
2026-05-06 17:40 48.48609 4.12520 36933 ft 457 kts 107°
2026-05-06 17:41 48.46939 4.21684 36933 ft 457 kts 107°
2026-05-06 17:41 48.45255 4.30911 36930 ft 457 kts 107°
2026-05-06 17:42 48.43560 4.40129 36925 ft 457 kts 107°
2026-05-06 17:42 48.41860 4.49343 36929 ft 457 kts 107°
2026-05-06 17:43 48.40167 4.58465 36923 ft 457 kts 107°
2026-05-06 17:43 48.38441 4.67655 36919 ft 456 kts 107°
2026-05-06 17:44 48.36710 4.76839 36919 ft 457 kts 107°
2026-05-06 17:44 48.34974 4.86032 36917 ft 457 kts 107°
2026-05-06 17:45 48.33240 4.95216 36923 ft 457 kts 108°
2026-05-06 17:45 48.31501 5.04336 36914 ft 457 kts 108°
2026-05-06 17:46 48.29740 5.13514 36920 ft 457 kts 108°
2026-05-06 17:46 48.27953 5.22674 36910 ft 457 kts 108°
2026-05-06 17:47 48.26109 5.31814 36908 ft 458 kts 109°
2026-05-06 17:47 48.24242 5.40952 36910 ft 458 kts 109°
2026-05-06 17:48 48.22401 5.50025 36906 ft 458 kts 109°
2026-05-06 17:48 48.20550 5.59163 36899 ft 458 kts 109°
2026-05-06 17:49 48.18686 5.68292 36890 ft 458 kts 109°
2026-05-06 17:49 48.16810 5.77400 36891 ft 458 kts 109°
2026-05-06 17:50 48.14948 5.86451 36884 ft 458 kts 109°
2026-05-06 17:50 48.13060 5.95553 36887 ft 458 kts 109°
2026-05-06 17:51 48.11157 6.04652 36879 ft 458 kts 110°
2026-05-06 17:51 48.09251 6.13743 36881 ft 458 kts 110°
2026-05-06 17:52 48.07353 6.22769 36883 ft 458 kts 110°
2026-05-06 17:52 48.05441 6.31858 36888 ft 458 kts 110°
2026-05-06 17:53 48.03518 6.40938 36879 ft 458 kts 110°
2026-05-06 17:53 48.01576 6.50009 36887 ft 459 kts 110°
2026-05-06 17:54 47.99649 6.59020 36893 ft 459 kts 110°
2026-05-06 17:54 47.97696 6.68080 36899 ft 458 kts 111°
2026-05-06 17:55 47.95459 6.76965 36901 ft 457 kts 115°
2026-05-06 17:55 47.92990 6.85695 36884 ft 457 kts 116°
2026-05-06 17:56 47.90539 6.94379 36889 ft 458 kts 115°
2026-05-06 17:56 47.88132 7.03158 36888 ft 458 kts 115°
2026-05-06 17:57 47.85741 7.11970 36888 ft 458 kts 115°
2026-05-06 17:57 47.83338 7.20759 36869 ft 458 kts 116°
2026-05-06 17:58 47.80914 7.29538 36888 ft 459 kts 116°
2026-05-06 17:58 47.78496 7.38256 36891 ft 459 kts 116°
2026-05-06 17:59 47.76054 7.47032 36899 ft 460 kts 116°
2026-05-06 17:59 47.73387 7.55626 36924 ft 455 kts 126°
2026-05-06 18:00 47.69719 7.63222 36908 ft 452 kts 130°
2026-05-06 18:00 47.66010 7.70693 36917 ft 453 kts 130°
2026-05-06 18:01 47.62276 7.78211 36923 ft 453 kts 130°
2026-05-06 18:01 47.58536 7.85704 36923 ft 452 kts 130°
2026-05-06 18:02 47.54790 7.93185 36918 ft 452 kts 130°
2026-05-06 18:02 47.51065 8.00605 36910 ft 452 kts 131°
2026-05-06 18:03 47.47302 8.08083 36909 ft 453 kts 131°
2026-05-06 18:03 47.43533 8.15551 36910 ft 454 kts 131°
2026-05-06 18:04 47.39756 8.23013 36915 ft 454 kts 131°
2026-05-06 18:04 47.35980 8.30478 36915 ft 454 kts 131°
2026-05-06 18:05 47.32221 8.37876 36900 ft 453 kts 131°
2026-05-06 18:05 47.28186 8.44922 36916 ft 445 kts 144°
2026-05-06 18:06 47.22992 8.49541 36915 ft 432 kts 164°
2026-05-06 18:06 47.17200 8.51295 36912 ft 424 kts 178°
2026-05-06 18:07 47.11413 8.52128 36916 ft 425 kts 178°
2026-05-06 18:07 47.05522 8.52982 36909 ft 425 kts 178°
2026-05-06 18:08 46.99632 8.53827 36914 ft 426 kts 178°
2026-05-06 18:08 46.93736 8.54672 36917 ft 426 kts 178°
2026-05-06 18:09 46.87875 8.55528 36927 ft 426 kts 178°
2026-05-06 18:09 46.81989 8.56378 36918 ft 424 kts 178°
2026-05-06 18:10 46.76098 8.57215 36923 ft 426 kts 178°
2026-05-06 18:10 46.70200 8.58058 36931 ft 425 kts 179°
2026-05-06 18:11 46.64321 8.58902 36929 ft 425 kts 179°
2026-05-06 18:11 46.58479 8.59732 36941 ft 424 kts 179°
2026-05-06 18:12 46.52613 8.60562 36944 ft 424 kts 179°
2026-05-06 18:12 46.46747 8.61398 36932 ft 423 kts 179°
2026-05-06 18:13 46.40885 8.62218 36936 ft 423 kts 179°
2026-05-06 18:13 46.35068 8.63022 36921 ft 423 kts 179°
2026-05-06 18:14 46.29205 8.63859 36917 ft 424 kts 179°
2026-05-06 18:14 46.23333 8.64691 36889 ft 423 kts 179°
2026-05-06 18:15 46.17475 8.65526 36909 ft 423 kts 178°
2026-05-06 18:15 46.14579 8.66398 36909 ft 430 kts 167°
2026-05-06 18:15 46.11824 8.68161 36902 ft 438 kts 154°
2026-05-06 18:16 46.09388 8.70759 36906 ft 448 kts 142°
2026-05-06 18:16 46.07345 8.74200 36909 ft 459 kts 128°
2026-05-06 18:16 46.04099 8.82168 36886 ft 462 kts 126°
2026-05-06 18:17 46.00869 8.90163 36647 ft 463 kts 127°
2026-05-06 18:17 45.99246 8.94158 36394 ft 462 kts 127°
2026-05-06 18:17 45.97621 8.98144 36140 ft 462 kts 127°
2026-05-06 18:18 45.96017 9.02064 35896 ft 461 kts 127°
2026-05-06 18:18 45.94384 9.06045 35248 ft 465 kts 128°
2026-05-06 18:18 45.92732 9.10064 34424 ft 469 kts 128°
2026-05-06 18:18 45.91067 9.14119 33540 ft 473 kts 129°
2026-05-06 18:19 45.89419 9.18156 33061 ft 465 kts 129°
2026-05-06 18:19 45.87794 9.22148 32491 ft 461 kts 129°
2026-05-06 18:19 45.86178 9.26096 31933 ft 457 kts 129°
2026-05-06 18:19 45.84565 9.30012 31377 ft 455 kts 129°
2026-05-06 18:20 45.82951 9.33907 30811 ft 453 kts 129°
2026-05-06 18:20 45.81343 9.37782 30251 ft 451 kts 129°
2026-05-06 18:20 45.79777 9.41556 29662 ft 449 kts 129°
2026-05-06 18:20 45.78190 9.45382 29103 ft 445 kts 129°
2026-05-06 18:21 45.76616 9.49178 28528 ft 441 kts 129°
2026-05-06 18:21 45.75059 9.52933 28004 ft 437 kts 129°
2026-05-06 18:21 45.73513 9.56661 27477 ft 433 kts 129°
2026-05-06 18:21 45.71983 9.60346 26958 ft 429 kts 129°
2026-05-06 18:22 45.70463 9.63994 26463 ft 425 kts 128°
2026-05-06 18:22 45.68952 9.67609 25965 ft 422 kts 128°
2026-05-06 18:22 45.67447 9.71193 25488 ft 419 kts 128°
2026-05-06 18:22 45.66131 9.74861 25032 ft 423 kts 118°
2026-05-06 18:23 45.65287 9.78921 24559 ft 430 kts 106°
2026-05-06 18:23 45.65000 9.83198 24085 ft 436 kts 95°
2026-05-06 18:23 45.65001 9.87529 23639 ft 436 kts 95°
2026-05-06 18:23 45.64996 9.91868 23091 ft 437 kts 95°
2026-05-06 18:24 45.64984 9.96195 22605 ft 435 kts 95°
2026-05-06 18:24 45.64970 10.00509 22099 ft 433 kts 95°
2026-05-06 18:24 45.64952 10.04797 21689 ft 429 kts 95°
2026-05-06 18:24 45.64933 10.09037 21071 ft 423 kts 95°
2026-05-06 18:25 45.64916 10.13137 20561 ft 416 kts 94°
2026-05-06 18:25 45.64903 10.17266 20060 ft 415 kts 94°
2026-05-06 18:25 45.64894 10.21369 19600 ft 413 kts 94°
2026-05-06 18:25 45.64886 10.25465 19184 ft 410 kts 94°
2026-05-06 18:26 45.64878 10.29533 18615 ft 404 kts 94°
2026-05-06 18:26 45.64867 10.33499 18022 ft 392 kts 96°
2026-05-06 18:26 45.64499 10.37236 17524 ft 369 kts 110°
2026-05-06 18:26 45.63580 10.40538 17084 ft 348 kts 124°
2026-05-06 18:27 45.62272 10.43257 16692 ft 327 kts 137°
2026-05-06 18:27 45.60666 10.45437 16237 ft 311 kts 148°
2026-05-06 18:27 45.58891 10.47049 15860 ft 296 kts 156°
2026-05-06 18:27 45.57123 10.48466 15483 ft 287 kts 156°
2026-05-06 18:28 45.55411 10.49850 15119 ft 279 kts 156°
2026-05-06 18:28 45.53745 10.51199 14765 ft 274 kts 156°
2026-05-06 18:28 45.52080 10.52538 14415 ft 276 kts 156°
2026-05-06 18:28 45.50393 10.53885 14047 ft 279 kts 155°
2026-05-06 18:29 45.48713 10.55223 13674 ft 282 kts 155°
2026-05-06 18:29 45.46999 10.56589 13283 ft 283 kts 155°
2026-05-06 18:29 45.45281 10.57964 12911 ft 284 kts 155°
2026-05-06 18:29 45.43560 10.59342 12537 ft 284 kts 155°
2026-05-06 18:30 45.41834 10.60722 12173 ft 285 kts 155°
2026-05-06 18:30 45.40099 10.62108 11790 ft 286 kts 155°
2026-05-06 18:30 45.38337 10.63416 11408 ft 284 kts 163°
2026-05-06 18:30 45.36426 10.63953 11047 ft 279 kts 182°
2026-05-06 18:31 45.34529 10.63547 10584 ft 278 kts 200°
2026-05-06 18:31 45.32873 10.62262 10010 ft 273 kts 219°
2026-05-06 18:31 45.31532 10.60376 9371 ft 271 kts 226°
2026-05-06 18:31 45.30233 10.58439 8655 ft 271 kts 226°
2026-05-06 18:32 45.28924 10.56526 8098 ft 266 kts 225°
2026-05-06 18:32 45.27659 10.54728 7891 ft 248 kts 221°
2026-05-06 18:32 45.26194 10.53672 7768 ft 232 kts 190°
2026-05-06 18:32 45.24637 10.53938 7458 ft 230 kts 157°
2026-05-06 18:33 45.23376 10.55347 7002 ft 232 kts 140°
2026-05-06 18:33 45.22228 10.56940 6580 ft 230 kts 140°
2026-05-06 18:33 45.21179 10.58590 6157 ft 230 kts 122°
2026-05-06 18:33 45.20862 10.60771 5791 ft 230 kts 82°
2026-05-06 18:34 45.21601 10.62735 5701 ft 230 kts 41°
2026-05-06 18:34 45.22778 10.64258 6232 ft 220 kts 44°
2026-05-06 18:34 45.23859 10.65772 6736 ft 235 kts 45°
2026-05-06 18:34 45.25027 10.67551 6088 ft 255 kts 47°
2026-05-06 18:35 45.26275 10.69458 5419 ft 271 kts 47°
2026-05-06 18:35 45.27583 10.71410 4648 ft 281 kts 47°
2026-05-06 18:35 45.29019 10.73563 3484 ft 315 kts 48°
2026-05-06 18:35 45.30538 10.75785 3169 ft 310 kts 46°
2026-05-06 18:36 45.32034 10.77921 3033 ft 305 kts 47°
2026-05-06 18:36 45.33632 10.80235 3032 ft 350 kts 47°
2026-05-06 18:36 45.35383 10.82775 3026 ft 355 kts 47°
2026-05-06 18:36 45.37058 10.85199 3032 ft 332 kts 47°
2026-05-06 18:37 45.38452 10.87676 3035 ft 310 kts 62°
2026-05-06 18:37 45.39198 10.90432 3031 ft 290 kts 80°
2026-05-06 18:37 45.39311 10.93196 3030 ft 272 kts 97°
2026-05-06 18:37 45.38894 10.95690 3033 ft 256 kts 113°
2026-05-06 18:38 45.38059 10.97830 3032 ft 241 kts 129°
2026-05-06 18:38 45.36942 10.99485 3030 ft 224 kts 143°
2026-05-06 18:38 45.35679 11.00629 3032 ft 208 kts 156°
2026-05-06 18:38 45.34334 11.01309 3032 ft 205 kts 167°
2026-05-06 18:39 45.32922 11.01562 3032 ft 205 kts 180°
2026-05-06 18:39 45.31508 11.01381 3033 ft 204 kts 192°
2026-05-06 18:39 45.30136 11.00870 3036 ft 204 kts 195°
2026-05-06 18:40 45.27415 10.99812 3062 ft 205 kts 195°
2026-05-06 18:40 45.26038 10.99274 3059 ft 205 kts 194°
2026-05-06 18:40 45.24659 10.98735 3061 ft 206 kts 194°
2026-05-06 18:40 45.23285 10.98201 3060 ft 204 kts 195°
2026-05-06 18:41 45.21915 10.97668 3058 ft 204 kts 195°
2026-05-06 18:41 45.20544 10.97133 3065 ft 204 kts 195°
2026-05-06 18:41 45.19179 10.96583 3061 ft 204 kts 200°
2026-05-06 18:41 45.18009 10.95483 3059 ft 205 kts 229°
2026-05-06 18:42 45.17387 10.93675 3063 ft 208 kts 256°
2026-05-06 18:42 45.17104 10.91655 3063 ft 209 kts 257°
2026-05-06 18:42 45.16828 10.89663 3063 ft 209 kts 257°
2026-05-06 18:42 45.16550 10.87645 3060 ft 208 kts 257°
2026-05-06 18:43 45.16279 10.85683 3057 ft 198 kts 257°
2026-05-06 18:43 45.16015 10.83784 3054 ft 195 kts 257°
2026-05-06 18:43 45.15752 10.81905 3053 ft 194 kts 256°
2026-05-06 18:43 45.15490 10.80045 3055 ft 192 kts 256°
2026-05-06 18:44 45.15227 10.78192 3051 ft 191 kts 256°
2026-05-06 18:44 45.14965 10.76343 3050 ft 192 kts 256°
2026-05-06 18:44 45.14704 10.74497 3048 ft 191 kts 256°
2026-05-06 18:44 45.14448 10.72674 3050 ft 191 kts 256°
2026-05-06 18:45 45.14211 10.70825 3044 ft 192 kts 263°
2026-05-06 18:45 45.14326 10.68940 3048 ft 194 kts 283°
2026-05-06 18:45 45.14896 10.67196 3044 ft 198 kts 303°
2026-05-06 18:45 45.15844 10.65772 3041 ft 200 kts 314°
2026-05-06 18:46 45.16845 10.64409 3035 ft 200 kts 313°
2026-05-06 18:46 45.17943 10.63202 3028 ft 202 kts 331°
2026-05-06 18:46 45.19278 10.62591 3026 ft 204 kts 352°
2026-05-06 18:46 45.20694 10.62694 3026 ft 206 kts 14°
2026-05-06 18:47 45.21973 10.63511 3032 ft 205 kts 37°
2026-05-06 18:47 45.23010 10.64887 3038 ft 205 kts 47°
2026-05-06 18:47 45.24011 10.66331 3030 ft 205 kts 47°
2026-05-06 18:47 45.25009 10.67771 3029 ft 205 kts 47°
2026-05-06 18:48 45.26011 10.69216 3037 ft 205 kts 47°
2026-05-06 18:48 45.27011 10.70659 3032 ft 205 kts 46°
2026-05-06 18:48 45.28004 10.72092 3032 ft 202 kts 48°
2026-05-06 18:48 45.28987 10.73512 2915 ft 201 kts 48°
2026-05-06 18:49 45.29956 10.74913 2725 ft 196 kts 48°
2026-05-06 18:49 45.30891 10.76265 2447 ft 193 kts 48°
2026-05-06 18:49 45.31806 10.77588 2190 ft 182 kts 49°
2026-05-06 18:49 45.32658 10.78820 1955 ft 167 kts 49°
2026-05-06 18:50 45.33417 10.79917 1753 ft 147 kts 49°
2026-05-06 18:50 45.34109 10.80921 1566 ft 139 kts 49°
2026-05-06 18:50 45.34778 10.81892 1378 ft 136 kts 49°
2026-05-06 18:50 45.35437 10.82849 1196 ft 134 kts 49°
2026-05-06 18:51 45.36081 10.83783 1021 ft 134 kts 48°
2026-05-06 18:51 45.36733 10.84730 846 ft 133 kts 48°
2026-05-06 18:51 45.37383 10.85673 662 ft 134 kts 48°
2026-05-06 18:51 45.38028 10.86610 488 ft 132 kts 46°
2026-05-06 18:52 45.38671 10.87544 314 ft 133 kts 48°
2026-05-06 18:52 45.39292 10.88461 239 ft 117 kts 45°
2026-05-06 18:52 45.39763 10.89145 241 ft 81 kts 46°
2026-05-06 18:52 45.40064 10.89580 247 ft 36 kts 45°
2026-05-06 18:53 45.40221 10.89805 249 ft 24 kts 45°
2026-05-06 18:53 45.40283 10.89967 250 ft 20 kts 76°
2026-05-06 18:53 45.40314 10.90129 247 ft 13 kts 75°
2026-05-06 18:53 45.40315 10.90136 247 ft 0 kts 75°